Location: Betz
(49.1556°N, 2.9558°E)
Time: 12:45:43
(UTC+00:00)

Cosmos 2297 Rocket - Pass Details

Date: 18 September 2019
Orbit: 841 x 842 km, 71.0° (Epoch: 17 October)

Event Time Altitude Azimuth Distance (km) Brightness Sun altitude
Rises 19:12:37 0° 174° (S) 3,385 5.1 -13.2°
Reaches altitude 10° 19:15:18 10° 164° (SSE) 2,455 4.3 -13.6°
Maximum altitude 19:20:09 31° 105° (ESE) 1,455 2.9 -14.3°
Drops below altitude 10° 19:25:01 10° 45° (NE) 2,470 4.4 -15.1°
Sets 19:27:43 0° 36° (NE) 3,409 5.2 -15.5°
